Location: Shenandoah County Park
(38.9356°N, 78.4524°W)
Time: 13:13:03
(UTC-05:00)

Vanguard 1 Rocket - All Passes

Search period start: 07 February 2023 00:00
Search period end: 17 February 2023 00:00
Orbit: 651 x 4224 km, 34.3° (Epoch: 06 February)

Date Brightness Start Highest point End Pass type
(mag) Time Alt. Az. Time Alt. Az. Time Alt. Az.
07 Feb - 10:13:06 10° SSW 10:19:20 35° SE 10:30:08 10° E daylight
07 Feb - 12:35:44 10° WSW 12:45:01 70° S 13:03:47 10° E daylight
07 Feb - 15:00:29 10° W 15:13:57 69° SSW 15:38:02 10° ESE daylight
07 Feb - 17:27:20 10° W 17:44:31 45° SSW 18:08:03 10° SSE visible
07 Feb - 20:01:25 10° W 20:14:20 17° SW 20:28:06 10° SSW visible
08 Feb - 09:04:34 10° S 09:08:48 18° SE 09:14:39 10° E daylight
08 Feb - 11:25:21 10° WSW 11:32:55 59° SSE 11:47:54 10° E daylight
08 Feb - 13:49:18 10° W 14:00:24 73° S 14:22:06 10° ESE daylight
08 Feb - 16:14:56 10° W 16:30:15 55° SSW 16:54:31 10° SE daylight
08 Feb - 18:44:26 10° W 19:00:33 27° SW 19:19:50 10° S visible
09 Feb - 10:15:27 10° SW 10:21:35 41° SSE 10:32:38 10° E daylight
09 Feb - 12:38:31 10° WSW 12:47:34 72° S 13:05:57 10° E daylight
09 Feb - 15:03:16 10° W 15:16:18 63° SSW 15:39:42 10° ESE daylight
09 Feb - 17:30:25 10° W 17:46:30 38° SW 18:08:35 10° SSE visible
09 Feb - 20:09:18 10° WSW 20:16:10 12° SW 20:23:20 10° SSW visible
10 Feb - 09:06:18 10° SSW 09:10:55 23° SE 09:17:47 10° E daylight
10 Feb - 11:28:03 10° WSW 11:35:26 64° SSE 11:50:10 10° E daylight
10 Feb - 13:52:07 10° W 14:02:54 69° S 14:24:01 10° ESE daylight
10 Feb - 16:17:50 10° W 16:32:26 48° SSW 16:55:32 10° SE daylight
10 Feb - 18:48:40 10° W 19:02:27 21° SW 19:18:47 10° S visible
11 Feb - 10:17:58 10° SW 10:24:00 48° SSE 10:35:05 10° E daylight
11 Feb - 12:41:20 10° W 12:50:08 71° S 13:08:04 10° E daylight
11 Feb - 15:06:06 10° W 15:18:40 57° SSW 15:41:08 10° SE daylight
11 Feb - 17:33:47 10° W 17:48:33 31° SW 18:08:37 10° SSE visible
12 Feb - 09:08:24 10° SSW 09:13:11 29° SE 09:20:38 10° E daylight
12 Feb - 11:30:49 10° WSW 11:38:01 67° S 11:52:26 10° E daylight
12 Feb - 13:54:57 10° W 14:05:25 64° SSW 14:25:49 10° ESE daylight
12 Feb - 16:20:53 10° W 16:34:41 40° SSW 16:56:12 10° SSE daylight
12 Feb - 18:54:18 10° WSW 19:04:30 15° SW 19:16:10 10° SSW visible
13 Feb - 08:00:07 10° SSE 08:02:46 14° SE 08:05:57 10° ESE daylight
13 Feb - 10:20:36 10° WSW 10:26:31 54° SSE 10:37:30 10° E daylight
13 Feb - 12:44:09 10° W 12:52:44 69° S 13:10:08 10° ESE daylight
13 Feb - 15:09:01 10° W 15:21:04 49° SSW 15:42:19 10° SE daylight
13 Feb - 17:37:39 10° W 17:50:42 24° SW 18:07:57 10° S daylight
14 Feb - 09:10:45 10° SW 09:15:35 36° SSE 09:23:19 10° E daylight
14 Feb - 11:33:38 10° WSW 11:40:40 68° S 11:54:41 10° E daylight
14 Feb - 13:57:49 10° W 14:07:56 58° SSW 14:27:26 10° SE daylight
14 Feb - 16:24:09 10° W 16:36:58 33° SSW 16:56:26 10° SSE daylight
15 Feb - 08:01:37 10° S 08:05:04 19° SE 08:09:29 10° E daylight
15 Feb - 10:23:20 10° WSW 10:29:08 59° SSE 10:39:54 10° E daylight
15 Feb - 12:47:01 10° W 12:55:22 64° S 13:12:06 10° ESE daylight
15 Feb - 15:12:03 10° W 15:23:30 42° SSW 15:43:10 10° SE daylight
15 Feb - 17:42:27 10° WSW 17:52:57 18° SW 18:06:10 10° S daylight
16 Feb - 09:13:16 10° SW 09:18:06 43° SSE 09:25:56 10° E daylight
16 Feb - 11:36:29 10° W 11:43:21 66° S 11:56:54 10° ESE daylight
16 Feb - 14:00:45 10° W 14:10:28 50° SSW 14:28:49 10° SE daylight
16 Feb - 16:27:49 10° W 16:39:20 26° SSW 16:56:04 10° SSE daylight
